Franklin, NC

5:05 PM EST on December 14, 2017 (GMT -0500)
Franklin

Weather History for K1A5 - September, 2013

Change the Weather History Date:

Saturday, September 14, 2013

  Actual Average (KTOC) Record (KTOC)
Temperature  
Mean Temperature 60 °F -  
Max Temperature 75 °F 83 °F 95 °F (2016)
Min Temperature 46 °F 60 °F 50 °F (2015)
Degree Days  
Heating Degree Days 4    
Growing Degree Days 10 (Base 50)    
Moisture  
Dew Point 49 °F    
Average Humidity 79    
Maximum Humidity 98    
Minimum Humidity 32    
Precipitation  
Precipitation 0.00 in - - ()
Sea Level Pressure  
Sea Level Pressure 30.08 in    
Wind  
Wind Speed 0 mph (WSW)    
Max Wind Speed 5 mph    
Max Gust Speed -    
Visibility 7 miles    
Events Fog    
Averages and records for this station are not official NWS values.
T = Trace of Precipitation, MM = Missing Value Source: NWS Daily Summary

Daily Weather History Graph

Daily Weather History Graph

Search for Another Location

Airport or City:

Trip Planner

Search our weather history database for the weather conditions in past years. The results will help you decide how hot, cold, wet, or windy it might be!

Date:

Astronomy

Sep. 14, 2013 Rise Set
Actual Time 7:15 AM EDT 7:41 PM EDT
Civil Twilight 6:50 AM EDT 8:07 PM EDT
Nautical Twilight 6:20 AM EDT 8:36 PM EDT
Astronomical Twilight 5:50 AM EDT 9:07 PM EDT
Moon 4:14 PM EDT 1:55 AM EDT
Length of Visible Light 13h 16m
Length of Day
12h 25m
Waxing Gibbous, 72% of the Moon is Illuminated
Sep 14
Waxing Gibbous
Sep 19
Full
Sep 26
Last Quarter
Oct 4
New
Oct 11
First Quarter

Hourly Weather History & Observations

Time (EDT) Temp. Dew Point Humidity Pressure Visibility Wind Dir Wind Speed Gust Speed Precip Events Conditions
12:15 AM 51.3 °F 50.0 °F 95% 30.02 in 10.0 mi Calm Calm - N/A   Clear
12:35 AM 50.5 °F 49.3 °F 95% 30.02 in 10.0 mi Calm Calm - N/A   Clear
12:55 AM 50.5 °F 49.5 °F 96% 30.02 in 10.0 mi Calm Calm - N/A   Clear
1:15 AM 50.0 °F 48.9 °F 96% 30.02 in 7.0 mi Calm Calm - N/A   Clear
1:35 AM 49.3 °F 48.6 °F 97% 30.02 in 7.0 mi Calm Calm - N/A   Scattered Clouds
1:55 AM 49.1 °F 48.4 °F 97% 30.02 in 7.0 mi Calm Calm - N/A   Scattered Clouds
2:15 AM 48.6 °F 47.8 °F 97% 30.02 in 7.0 mi Calm Calm - N/A   Clear
2:35 AM 48.4 °F 47.7 °F 97% 30.02 in 2.5 mi Calm Calm - N/A   Mostly Cloudy
2:55 AM 47.8 °F 47.1 °F 97% 30.02 in 10.0 mi Calm Calm - N/A   Mostly Cloudy
3:15 AM 48.2 °F 47.3 °F 97% 30.03 in 10.0 mi Calm Calm - N/A   Scattered Clouds
3:35 AM 46.8 °F 46.0 °F 97% 30.02 in 10.0 mi Calm Calm - N/A   Clear
3:55 AM 46.8 °F 46.0 °F 97% 30.02 in 7.0 mi Calm Calm - N/A   Clear
4:15 AM 47.3 °F 46.6 °F 97% 30.02 in 3.0 mi Calm Calm - N/A   Scattered Clouds
4:35 AM 47.3 °F 46.8 °F 98% 30.02 in 1.5 mi Calm Calm - N/A   Overcast
4:55 AM 46.8 °F 46.2 °F 98% 30.02 in 2.0 mi Calm Calm - N/A   Overcast
5:15 AM 47.3 °F 46.4 °F 97% 30.02 in 0.5 mi Calm Calm - N/A Fog Fog
5:35 AM 47.3 °F 46.6 °F 97% 30.02 in 0.2 mi Calm Calm - N/A Fog Fog
5:55 AM 47.3 °F 46.6 °F 97% 30.03 in 0.8 mi Calm Calm - N/A   Overcast
6:15 AM 47.3 °F 46.4 °F 97% 30.03 in 0.2 mi Calm Calm - N/A Fog Fog
6:35 AM 46.8 °F 46.0 °F 97% 30.05 in 0.2 mi Calm Calm - N/A Fog Fog
6:55 AM 46.0 °F 45.5 °F 98% 30.06 in 0.2 mi Calm Calm - N/A Fog Fog
7:15 AM 46.4 °F 45.5 °F 97% 30.06 in 0.8 mi Calm Calm - N/A   Overcast
7:35 AM 46.4 °F 45.7 °F 97% 30.07 in 0.8 mi Calm Calm - N/A   Overcast
7:55 AM 46.8 °F 46.0 °F 97% 30.08 in 0.2 mi Calm Calm - N/A Fog Fog
8:15 AM 47.1 °F 46.4 °F 97% 30.09 in 0.2 mi Calm Calm - N/A Fog Fog
8:35 AM 46.8 °F 46.2 °F 98% 30.09 in 0.2 mi Calm Calm - N/A Fog Fog
8:55 AM 46.6 °F 45.9 °F 97% 30.11 in 0.2 mi Calm Calm - N/A Fog Fog
9:15 AM 47.3 °F 46.6 °F 97% 30.11 in 0.2 mi Calm Calm - N/A Fog Fog
9:35 AM 48.6 °F 47.8 °F 97% 30.11 in 0.8 mi Calm Calm - N/A   Overcast
9:55 AM 49.1 °F 48.2 °F 97% 30.11 in 2.5 mi Calm Calm - N/A   Overcast
10:15 AM 50.4 °F 49.6 °F 97% 30.12 in 10.0 mi Calm Calm - N/A   Mostly Cloudy
10:35 AM 53.1 °F 52.2 °F 97% 30.12 in 10.0 mi Calm Calm - N/A   Scattered Clouds
10:55 AM 55.0 °F 54.3 °F 97% 30.11 in 10.0 mi Calm Calm - N/A   Clear
11:15 AM 59.0 °F 51.6 °F 76% 30.11 in 10.0 mi Calm Calm - N/A   Clear
11:35 AM 62.1 °F 50.7 °F 66% 30.11 in 10.0 mi Calm Calm - N/A   Clear
11:55 AM 64.8 °F 51.1 °F 61% 30.11 in 10.0 mi East 3.5 mph - N/A   Clear
12:15 PM 66.2 °F 50.4 °F 57% 30.11 in 10.0 mi Calm Calm - N/A   Clear
12:35 PM 67.3 °F 50.9 °F 56% 30.10 in 10.0 mi North 3.5 mph - N/A   Clear
12:55 PM 69.6 °F 50.0 °F 50% 30.09 in 10.0 mi North 3.5 mph - N/A   Clear
1:15 PM 70.2 °F 47.8 °F 45% 30.09 in 10.0 mi Calm Calm - N/A   Clear
1:35 PM 70.7 °F 49.3 °F 47% 30.09 in 10.0 mi North 3.5 mph - N/A   Clear
1:55 PM 71.8 °F 49.1 °F 45% 30.08 in 10.0 mi Calm Calm - N/A   Clear
2:15 PM 72.5 °F 48.4 °F 42% 30.08 in 10.0 mi West 3.5 mph - N/A   Clear
2:35 PM 73.8 °F 49.5 °F 42% 30.07 in 10.0 mi South 3.5 mph - N/A   Clear
2:55 PM 74.1 °F 45.3 °F 36% 30.07 in 10.0 mi Calm Calm - N/A   Clear
3:15 PM 73.6 °F 41.5 °F 32% 30.06 in 10.0 mi Calm Calm - N/A   Clear
3:35 PM 74.3 °F 45.9 °F 36% 30.06 in 10.0 mi Calm Calm - N/A   Clear
3:55 PM 75.2 °F 45.9 °F 35% 30.06 in 10.0 mi SSE 3.5 mph - N/A   Clear
4:15 PM 74.7 °F 46.2 °F 36% 30.06 in 10.0 mi Calm Calm - N/A   Clear
4:35 PM 75.4 °F 47.5 °F 37% 30.06 in 10.0 mi South 3.5 mph - N/A   Clear
4:55 PM 73.9 °F 47.1 °F 38% 30.07 in 10.0 mi Calm Calm - N/A   Scattered Clouds
5:15 PM 73.8 °F 50.9 °F 45% 30.07 in 10.0 mi Calm Calm - N/A   Scattered Clouds
5:35 PM 73.9 °F 51.6 °F 45% 30.08 in 10.0 mi WSW 4.6 mph - N/A   Scattered Clouds
5:55 PM 73.8 °F 52.5 °F 47% 30.08 in 10.0 mi WSW 4.6 mph - N/A   Clear
6:15 PM 71.4 °F 52.2 °F 51% 30.09 in 10.0 mi Calm Calm - N/A   Clear
6:35 PM 70.0 °F 52.7 °F 54% 30.09 in 10.0 mi Calm Calm - N/A   Clear
6:55 PM 69.3 °F 53.2 °F 57% 30.09 in 10.0 mi Calm Calm - N/A   Clear
7:15 PM 65.5 °F 55.8 °F 71% 30.10 in 10.0 mi Calm Calm - N/A   Clear
7:35 PM 63.1 °F 55.6 °F 76% 30.10 in 10.0 mi Calm Calm - N/A   Clear
7:55 PM 60.3 °F 55.6 °F 85% 30.11 in 10.0 mi Calm Calm - N/A   Clear
8:15 PM 58.8 °F 55.0 °F 87% 30.12 in 10.0 mi Calm Calm - N/A   Clear
8:35 PM 57.4 °F 54.7 °F 91% 30.13 in 10.0 mi Calm Calm - N/A   Clear
8:55 PM 55.8 °F 53.2 °F 91% 30.14 in 10.0 mi Calm Calm - N/A   Clear
9:15 PM 56.3 °F 54.0 °F 92% 30.15 in 10.0 mi Calm Calm - N/A   Clear
9:35 PM 54.7 °F 53.2 °F 95% 30.15 in 10.0 mi Calm Calm - N/A   Clear
9:55 PM 54.1 °F 52.9 °F 95% 30.16 in 10.0 mi Calm Calm - N/A   Clear
10:15 PM 53.6 °F 52.7 °F 97% 30.16 in 7.0 mi Calm Calm - N/A   Clear
10:35 PM 53.1 °F 52.2 °F 97% 30.16 in 7.0 mi Calm Calm - N/A   Clear
10:55 PM 51.8 °F 51.1 °F 97% 30.16 in 7.0 mi Calm Calm - N/A   Clear
11:15 PM 52.0 °F 51.4 °F 98% 30.16 in 7.0 mi Calm Calm - N/A   Clear
11:35 PM 51.3 °F 50.7 °F 98% 30.18 in 7.0 mi Calm Calm - N/A   Clear
11:55 PM 51.1 °F 50.5 °F 98% 30.18 in 7.0 mi Calm Calm - N/A   Clear